STARLINK-6128, 57132

Orbit data source: Space-Track

STARLINK-6128, 57132 is a payload satellite owned by SpaceX/Seattle (US) in LEO that was launched on Fri, 23 Jun 2023 UTC via an FALCON 9 launch vehicle from the Air Force Eastern Test Range (AFETR). Payload-class satellites include a variety of spacecraft equipped with specific instruments for various scientific and technological missions. These include communications satellites like Starlink; space stations such as the ISS; scientific satellites like the Hubble; Earth observation satellites from companies like Planet Labs, Umbra, and HawkEye 360; GPS; miniature CubeSats for education and research; and military/defense satellites.

Loading next visibility...
Identifier
57132, 2023-090AH
Orbit
LEO
Last TLE update
1 day ago
Origin
Manufacturer
SpaceX/Seattle
Mission
Operational Commercial Communications
Bus & Motor
STARLINK, Unknown motor
Mass
305 kg wet, ~290 kg dry
Launch date (UTC)
2023-06-23 (2 years ago)
Launch vehicle
FALCON 9
Launch site
Air Force Eastern Test Range (AFETR)
Object type
Payload
Rocket body
Debris
Shape & HBR
Box + 1 Pan, 9 m
Radar Cross Section
11.087 m², Large (>1 m²)

Expand to show TLE details & history

TLE from 1 day ago
0 STARLINK-6128
1 57132U 23090AH  25187.35501659 -.00000166  00000-0  27690-5 0  9992
2 57132  43.0025 172.6974 0001189 284.7397  75.3313 15.02536049113179
Epoch: 2025-07-06T08:31Z
TLE epoch observation values (Epoch: 2025-07-06T08:31:13.433Z)
Latitude
-0.00005°
Longitude
120.31147°
Altitude
558.649 km
Speed
7.584 km/s
True Right ascension
11h 30m 47s
True Declination
0° 00' 00"
Sunlit
Object was in daylight at epoch
Visualization orbit readout
Latitude
-27.27144°
Longitude
-32.34359°
Altitude
565.784 km
Speed
7.579 km/s
Apparent Right ascension
04h 49m 29s
Apparent Declination
-64° 25' 23"
Sunlit
Object is in daylight
Visualization observer readout
Local Sidereal Time
23:04:03
Azimuth
148.728° SSE
Elevation
-33.901°
Doppler factor
1
Orbital elements
Apogee altitude
561.828 km
Perigee altitude
560.178 km
Semi-major axis
6,939.14 km
Eccentricity
0.00012
Inclination
43.0025°
RAAN
172.6974°
Arg. of periapsis
284.7397°
True anomaly
Unknown
Mean anomaly
75.3313°
Eccentric anomaly
Unknown
Mean motion
3.75478 °/min
Orbital period
95.88 mins
BSTAR
0.000002769
Loading maneuver chart data...
Loading SW <> Apogee altitude chart data...
Loading historical data...
Loading historical data...
Loading historical data...
Loading historical data...
Loading historical data...
Loading historical data...
Loading historical data...

STARLINK-6128 Visibility forecast

Observer location: undefined°, undefined°

Span
Click to sort rows by Start time (UTC) header in descending order
Start Az.
Max El. time (UTC)
Max El. Az.
Max El.
End time (UTC)
End Az.
6 mins2025-07-08 02:13:51.831Z225.622° WSW2025-07-08 02:16:51.831Z136.754° SSE38.825°2025-07-08 02:19:51.831Z79.351° E
6 mins2025-07-08 03:54:51.831Z276.578° WNW2025-07-08 03:56:51.831Z319.821° NNW40.168°2025-07-08 04:00:51.831Z71.086° E
6 mins2025-07-08 05:35:51.831Z294.406° NW2025-07-08 05:37:51.831Z339.059° N40.667°2025-07-08 05:41:51.831Z90.126° ESE
7 mins2025-07-08 07:15:51.831Z278.648° WNW2025-07-08 07:18:51.831Z210.038° SW38.156°2025-07-08 07:22:51.831Z131.152° SE
|